Overview Statistics Trail Chart Weather Telemetry Raw packets
 

This is the latest recevied weather packets stored in our database for station/object 4S6DRJ-13. If no packets are shown the sender has not sent any weather packets the latest 10 day(s).

<< 38 39 40 41 42 43 44 >>
Time Temp. Humidity Pressure Rain* Wind** Luminosity Snow
1788389659 27.78° C 85% 1008.6 hPa 0 mm 0.45 m/s, 233° 0 W/m² -
1788389598 27.78° C 85% 1008.7 hPa 0 mm 0 m/s 0 W/m² -
1788389537 27.78° C 85% 1008.5 hPa 0 mm 0.89 m/s, 227° 0 W/m² -
1788389476 27.78° C 85% 1008.8 hPa 0 mm 0.89 m/s, 201° 0 W/m² -
1788389415 27.78° C 85% 1008.4 hPa 0 mm 0.45 m/s, 214° 0 W/m² -
1788389354 27.78° C 85% 1008.6 hPa 0 mm 0.89 m/s, 211° 0 W/m² -
1788389294 27.78° C 85% 1008.5 hPa 0 mm 0 m/s 0 W/m² -
1788389232 27.78° C 85% 1008.7 hPa 0 mm 0.45 m/s, 273° 0 W/m² -
1788389171 27.78° C 85% 1008.4 hPa 0 mm 0.89 m/s, 208° 0 W/m² -
1788389110 27.78° C 85% 1008.5 hPa 0 mm 1.79 m/s, 215° 0 W/m² -
1788389049 27.78° C 85% 1008.6 hPa 0 mm 0.89 m/s, 186° 0 W/m² -
1788388988 27.78° C 85% 1008.6 hPa 0 mm 0.89 m/s, 224° 0 W/m² -
1788388927 27.78° C 84% 1008.4 hPa 0 mm 0.45 m/s, 211° 0 W/m² -
1788388866 27.78° C 84% 1008.6 hPa 0 mm 0.89 m/s, 237° 0 W/m² -
1788388805 27.78° C 84% 1008.7 hPa 0 mm 0.45 m/s, 279° 0 W/m² -
1788388744 27.78° C 84% 1008.6 hPa 0 mm 1.34 m/s, 240° 0 W/m² -
1788388684 27.78° C 85% 1008.6 hPa 0 mm 1.34 m/s, 251° 0 W/m² -
1788388622 27.78° C 85% 1008.5 hPa 0 mm 0.89 m/s, 282° 0 W/m² -
1788388561 27.78° C 85% 1008.5 hPa 0 mm 0.45 m/s, 181° 0 W/m² -
1788388500 27.78° C 85% 1008.6 hPa 0 mm 2.68 m/s, 238° 0 W/m² -
1788388439 27.78° C 85% 1008.6 hPa 0 mm 2.68 m/s, 168° 0 W/m² -
1788388378 27.78° C 85% 1008.5 hPa 0 mm 1.79 m/s, 241° 0 W/m² -
1788388317 27.78° C 86% 1008.4 hPa 0 mm 2.24 m/s, 204° 0 W/m² -
1788388256 27.78° C 86% 1008.4 hPa 0 mm 1.34 m/s, 234° 0 W/m² -
1788388195 27.78° C 86% 1008.4 hPa 0 mm 1.34 m/s, 233° 0 W/m² -

* Rain latest hour (hover to see other rain measurements)
** Current wind speed in m/s (hover to see current wind gust speed)